Time,TemperatureF,DewpointF,PressureIn,WindDirection,WindDirectionDegrees,WindSpeedMPH,WindSpeedGustMPH,Humidity,HourlyPrecipIn,Conditions,Clouds,dailyrainin,SoftwareType,DateUTC
2013-10-15 00:01:00,54.0,52.0,30.12,ENE,78,0.0,0.0,93,0.00,,,0.00,Wunderground v.1.15,2013-10-15 04:01:00,
2013-10-15 00:03:00,54.0,52.0,30.12,ENE,78,0.0,0.0,93,0.00,,,0.00,Wunderground v.1.15,2013-10-15 04:03:00,
2013-10-15 00:05:00,54.0,52.0,30.12,ENE,78,0.0,0.0,93,0.00,,,0.00,Wunderground v.1.15,2013-10-15 04:05:00,
2013-10-15 00:07:00,54.0,52.0,30.12,ENE,78,0.0,0.0,93,0.00,,,0.00,Wunderground v.1.15,2013-10-15 04:07:00,
2013-10-15 00:11:00,54.0,52.0,30.13,ENE,78,0.0,0.0,93,0.00,,,0.00,Wunderground v.1.15,2013-10-15 04:11:00,
2013-10-15 00:17:00,54.1,52.1,30.12,ENE,78,0.0,0.0,93,0.00,,,0.00,Wunderground v.1.15,2013-10-15 04:17:00,
2013-10-15 00:23:00,54.1,51.8,30.12,ENE,78,0.0,0.0,92,0.00,,,0.00,Wunderground v.1.15,2013-10-15 04:23:00,
2013-10-15 00:29:00,54.1,51.8,30.12,ENE,78,0.0,0.0,92,0.00,,,0.00,Wunderground v.1.15,2013-10-15 04:29:00,
2013-10-15 00:35:00,54.0,51.7,30.11,ENE,78,0.0,0.0,92,0.00,,,0.00,Wunderground v.1.15,2013-10-15 04:35:00,
2013-10-15 00:39:00,53.9,51.6,30.11,ENE,78,0.0,0.0,92,0.00,,,0.00,Wunderground v.1.15,2013-10-15 04:39:00,
2013-10-15 00:45:00,53.8,51.8,30.11,ENE,78,0.0,0.0,93,0.00,,,0.00,Wunderground v.1.15,2013-10-15 04:45:00,
2013-10-15 00:51:00,53.7,51.7,30.11,ENE,78,0.0,0.0,93,0.00,,,0.00,Wunderground v.1.15,2013-10-15 04:51:00,
2013-10-15 00:57:00,53.6,51.6,30.11,ENE,78,0.0,0.0,93,0.00,,,0.00,Wunderground v.1.15,2013-10-15 04:57:00,
2013-10-15 01:03:00,53.5,51.5,30.11,ENE,78,0.0,0.0,93,0.00,,,0.00,Wunderground v.1.15,2013-10-15 05:03:00,
2013-10-15 01:09:00,53.4,51.4,30.10,ENE,78,0.0,0.0,93,0.00,,,0.00,Wunderground v.1.15,2013-10-15 05:09:00,
2013-10-15 01:15:00,53.4,51.4,30.10,ENE,78,0.0,0.0,93,0.00,,,0.00,Wunderground v.1.15,2013-10-15 05:15:00,
2013-10-15 01:21:00,53.5,51.5,30.10,ENE,78,0.0,0.0,93,0.00,,,0.00,Wunderground v.1.15,2013-10-15 05:21:00,
2013-10-15 01:27:00,53.6,51.3,30.10,ENE,78,0.0,0.0,92,0.00,,,0.00,Wunderground v.1.15,2013-10-15 05:27:00,
2013-10-15 01:33:00,53.7,51.4,30.10,ENE,78,0.0,0.0,92,0.00,,,0.00,Wunderground v.1.15,2013-10-15 05:33:00,
2013-10-15 01:39:00,53.8,51.5,30.09,ENE,78,0.0,0.0,92,0.00,,,0.00,Wunderground v.1.15,2013-10-15 05:39:00,
2013-10-15 01:45:00,53.9,51.6,30.09,ENE,78,0.0,0.0,92,0.00,,,0.00,Wunderground v.1.15,2013-10-15 05:45:00,
2013-10-15 01:51:00,54.0,51.4,30.09,ENE,78,0.0,0.0,91,0.00,,,0.00,Wunderground v.1.15,2013-10-15 05:51:00,
2013-10-15 01:57:00,54.1,51.8,30.09,ENE,78,0.0,0.0,92,0.00,,,0.00,Wunderground v.1.15,2013-10-15 05:57:00,
2013-10-15 02:03:00,54.2,51.6,30.08,ENE,78,0.0,0.0,91,0.00,,,0.00,Wunderground v.1.15,2013-10-15 06:03:00,
2013-10-15 02:09:00,54.2,51.6,30.08,ENE,78,0.0,0.0,91,0.00,,,0.00,Wunderground v.1.15,2013-10-15 06:09:00,
2013-10-15 02:15:00,54.3,51.7,30.08,ENE,78,0.0,0.0,91,0.00,,,0.00,Wunderground v.1.15,2013-10-15 06:15:00,
2013-10-15 02:21:00,54.4,51.5,30.08,ENE,78,0.0,0.0,90,0.00,,,0.00,Wunderground v.1.15,2013-10-15 06:21:00,
2013-10-15 02:27:00,54.5,51.6,30.08,ENE,78,0.0,0.0,90,0.00,,,0.00,Wunderground v.1.15,2013-10-15 06:27:00,
2013-10-15 02:33:00,54.5,51.6,30.08,ENE,78,0.0,0.0,90,0.00,,,0.00,Wunderground v.1.15,2013-10-15 06:33:00,
2013-10-15 02:39:00,54.7,51.5,30.08,ENE,78,0.0,0.0,89,0.00,,,0.00,Wunderground v.1.15,2013-10-15 06:39:00,
2013-10-15 02:45:00,54.8,51.6,30.08,ENE,78,0.0,0.0,89,0.00,,,0.00,Wunderground v.1.15,2013-10-15 06:45:00,
2013-10-15 02:51:00,55.0,51.5,30.08,ENE,78,0.0,0.0,88,0.00,,,0.00,Wunderground v.1.15,2013-10-15 06:51:00,
2013-10-15 02:57:00,55.2,51.7,30.08,ENE,78,0.0,0.0,88,0.00,,,0.00,Wunderground v.1.15,2013-10-15 06:57:00,
2013-10-15 03:03:00,55.5,51.7,30.08,ENE,78,0.0,0.0,87,0.00,,,0.00,Wunderground v.1.15,2013-10-15 07:03:00,
2013-10-15 03:09:00,55.7,51.6,30.08,ENE,78,0.0,0.0,86,0.00,,,0.00,Wunderground v.1.15,2013-10-15 07:09:00,
2013-10-15 03:15:00,55.9,51.8,30.09,ENE,78,0.0,0.0,86,0.00,,,0.00,Wunderground v.1.15,2013-10-15 07:15:00,
2013-10-15 03:21:00,56.1,51.7,30.08,ENE,78,0.0,0.0,85,0.00,,,0.00,Wunderground v.1.15,2013-10-15 07:21:00,
2013-10-15 03:27:00,56.1,52.0,30.08,ENE,78,0.0,0.0,86,0.00,,,0.00,Wunderground v.1.15,2013-10-15 07:27:00,
2013-10-15 03:33:00,56.0,51.9,30.07,ENE,78,0.0,0.0,86,0.00,,,0.00,Wunderground v.1.15,2013-10-15 07:33:00,
2013-10-15 03:39:00,55.9,51.8,30.07,ENE,78,1.0,2.0,86,0.00,,,0.00,Wunderground v.1.15,2013-10-15 07:39:00,
2013-10-15 03:45:00,55.9,51.8,30.07,ENE,78,1.0,1.0,86,0.00,,,0.00,Wunderground v.1.15,2013-10-15 07:45:00,
2013-10-15 03:51:00,55.9,51.8,30.06,ENE,78,1.0,2.0,86,0.00,,,0.00,Wunderground v.1.15,2013-10-15 07:51:00,
2013-10-15 03:57:00,55.8,51.7,30.06,ENE,78,2.0,2.0,86,0.00,,,0.00,Wunderground v.1.15,2013-10-15 07:57:00,
2013-10-15 04:03:00,55.8,51.7,30.06,ENE,78,1.0,2.0,86,0.00,,,0.00,Wunderground v.1.15,2013-10-15 08:03:00,
2013-10-15 04:09:00,55.8,51.7,30.05,ENE,78,1.0,3.0,86,0.00,,,0.00,Wunderground v.1.15,2013-10-15 08:09:00,
2013-10-15 04:15:00,55.9,51.8,30.04,ENE,78,2.0,3.0,86,0.00,,,0.00,Wunderground v.1.15,2013-10-15 08:15:00,
2013-10-15 04:21:00,55.9,51.8,30.05,ENE,78,1.0,1.0,86,0.00,,,0.00,Wunderground v.1.15,2013-10-15 08:21:00,
2013-10-15 04:27:00,56.0,51.9,30.04,ENE,78,1.0,2.0,86,0.00,,,0.00,Wunderground v.1.15,2013-10-15 08:27:00,
2013-10-15 04:33:00,56.0,52.2,30.04,ENE,78,1.0,3.0,87,0.00,,,0.00,Wunderground v.1.15,2013-10-15 08:33:00,
2013-10-15 04:39:00,56.1,52.3,30.04,ENE,78,2.0,3.0,87,0.00,,,0.00,Wunderground v.1.15,2013-10-15 08:39:00,
2013-10-15 04:47:00,56.1,52.3,30.04,ENE,78,2.0,3.0,87,0.00,,,0.00,Wunderground v.1.15,2013-10-15 08:47:00,
2013-10-15 04:53:00,56.1,52.6,30.03,ENE,78,3.0,3.0,88,0.00,,,0.00,Wunderground v.1.15,2013-10-15 08:53:00,
2013-10-15 04:55:00,56.1,52.6,30.03,ENE,78,2.0,3.0,88,0.00,,,0.00,Wunderground v.1.15,2013-10-15 08:55:00,
2013-10-15 05:01:00,56.2,52.7,30.04,ENE,78,2.0,4.0,88,0.00,,,0.00,Wunderground v.1.15,2013-10-15 09:01:00,
2013-10-15 05:07:00,56.3,53.1,30.04,ENE,78,2.0,4.0,89,0.00,,,0.00,Wunderground v.1.15,2013-10-15 09:07:00,
2013-10-15 05:13:00,56.4,53.2,30.04,ENE,78,2.0,2.0,89,0.00,,,0.00,Wunderground v.1.15,2013-10-15 09:13:00,
2013-10-15 05:19:00,56.5,53.3,30.04,ENE,78,2.0,4.0,89,0.00,,,0.00,Wunderground v.1.15,2013-10-15 09:19:00,
2013-10-15 05:25:00,56.5,53.6,30.04,ENE,78,2.0,3.0,90,0.00,,,0.00,Wunderground v.1.15,2013-10-15 09:25:00,
2013-10-15 05:31:00,56.6,53.7,30.04,ENE,78,1.0,1.0,90,0.00,,,0.00,Wunderground v.1.15,2013-10-15 09:31:00,
2013-10-15 05:37:00,56.6,53.7,30.04,ENE,78,0.0,1.0,90,0.00,,,0.00,Wunderground v.1.15,2013-10-15 09:37:00,
2013-10-15 05:43:00,56.7,53.8,30.04,ENE,78,1.0,2.0,90,0.00,,,0.00,Wunderground v.1.15,2013-10-15 09:43:00,
2013-10-15 05:49:00,56.8,53.9,30.04,ENE,78,2.0,2.0,90,0.00,,,0.00,Wunderground v.1.15,2013-10-15 09:49:00,
2013-10-15 05:55:00,56.9,54.3,30.04,ENE,78,1.0,3.0,91,0.00,,,0.00,Wunderground v.1.15,2013-10-15 09:55:00,
2013-10-15 06:01:00,57.0,54.4,30.03,ENE,78,1.0,1.0,91,0.00,,,0.00,Wunderground v.1.15,2013-10-15 10:01:00,
2013-10-15 06:07:00,57.1,54.5,30.03,ENE,78,0.0,1.0,91,0.00,,,0.00,Wunderground v.1.15,2013-10-15 10:07:00,
2013-10-15 06:13:00,57.1,54.5,30.04,ENE,78,0.0,0.0,91,0.00,,,0.00,Wunderground v.1.15,2013-10-15 10:13:00,
2013-10-15 06:19:00,57.2,54.6,30.03,ENE,78,0.0,2.0,91,0.00,,,0.00,Wunderground v.1.15,2013-10-15 10:19:00,
2013-10-15 06:25:00,57.2,54.6,30.02,ENE,78,1.0,3.0,91,0.00,,,0.00,Wunderground v.1.15,2013-10-15 10:25:00,
2013-10-15 06:31:00,57.2,54.6,30.02,ENE,78,1.0,1.0,91,0.00,,,0.00,Wunderground v.1.15,2013-10-15 10:31:00,
2013-10-15 06:37:00,57.2,54.6,30.02,ENE,78,0.0,1.0,91,0.00,,,0.00,Wunderground v.1.15,2013-10-15 10:37:00,
2013-10-15 06:43:00,57.3,55.0,30.02,ENE,78,0.0,0.0,92,0.00,,,0.00,Wunderground v.1.15,2013-10-15 10:43:00,
2013-10-15 06:49:00,57.4,55.1,30.02,ENE,78,1.0,3.0,92,0.00,,,0.00,Wunderground v.1.15,2013-10-15 10:49:00,
2013-10-15 06:55:00,57.5,55.2,30.02,ENE,78,1.0,1.0,92,0.00,,,0.00,Wunderground v.1.15,2013-10-15 10:55:00,
2013-10-15 07:01:00,57.5,55.2,30.02,ENE,78,0.0,0.0,92,0.00,,,0.00,Wunderground v.1.15,2013-10-15 11:01:00,
2013-10-15 07:07:00,57.6,55.3,30.02,ENE,78,0.0,0.0,92,0.00,,,0.00,Wunderground v.1.15,2013-10-15 11:07:00,
2013-10-15 07:13:00,57.6,55.3,30.02,ENE,78,0.0,0.0,92,0.00,,,0.00,Wunderground v.1.15,2013-10-15 11:13:00,
2013-10-15 07:19:00,57.7,55.4,30.02,ENE,78,0.0,0.0,92,0.00,,,0.00,Wunderground v.1.15,2013-10-15 11:19:00,
2013-10-15 07:25:00,57.7,55.4,30.02,ENE,78,0.0,0.0,92,0.00,,,0.00,Wunderground v.1.15,2013-10-15 11:25:00,
2013-10-15 07:31:00,57.5,55.2,30.02,ENE,78,0.0,0.0,92,0.00,,,0.00,Wunderground v.1.15,2013-10-15 11:31:00,
2013-10-15 07:37:00,57.5,55.5,30.02,ENE,78,0.0,0.0,93,0.00,,,0.00,Wunderground v.1.15,2013-10-15 11:37:00,
2013-10-15 07:43:00,57.5,55.5,30.02,ENE,78,0.0,0.0,93,0.00,,,0.00,Wunderground v.1.15,2013-10-15 11:43:00,
2013-10-15 07:49:00,57.6,55.6,30.02,ENE,78,0.0,0.0,93,0.00,,,0.00,Wunderground v.1.15,2013-10-15 11:49:00,
2013-10-15 07:55:00,57.7,55.7,30.02,ENE,78,0.0,0.0,93,0.00,,,0.00,Wunderground v.1.15,2013-10-15 11:55:00,
2013-10-15 08:01:00,57.8,55.8,30.02,ENE,78,0.0,0.0,93,0.00,,,0.00,Wunderground v.1.15,2013-10-15 12:01:00,
2013-10-15 08:07:00,57.9,55.9,30.02,ENE,78,0.0,0.0,93,0.00,,,0.00,Wunderground v.1.15,2013-10-15 12:07:00,
2013-10-15 08:13:00,57.8,55.8,30.02,ENE,78,0.0,0.0,93,0.00,,,0.00,Wunderground v.1.15,2013-10-15 12:13:00,
2013-10-15 08:19:00,57.9,56.2,30.01,ENE,78,0.0,0.0,94,0.00,,,0.00,Wunderground v.1.15,2013-10-15 12:19:00,
2013-10-15 08:25:00,58.0,56.3,30.01,ENE,78,0.0,0.0,94,0.00,,,0.00,Wunderground v.1.15,2013-10-15 12:25:00,
2013-10-15 08:31:00,58.1,56.4,30.01,NE,51,0.0,0.0,94,0.00,,,0.00,Wunderground v.1.15,2013-10-15 12:31:00,
2013-10-15 08:37:00,58.3,56.6,30.02,East,93,0.0,0.0,94,0.00,,,0.00,Wunderground v.1.15,2013-10-15 12:37:00,
2013-10-15 08:43:00,58.5,56.8,30.02,East,93,0.0,0.0,94,0.00,,,0.00,Wunderground v.1.15,2013-10-15 12:43:00,
2013-10-15 08:49:00,58.8,57.1,30.01,East,94,0.0,2.0,94,0.00,,,0.00,Wunderground v.1.15,2013-10-15 12:49:00,
2013-10-15 08:55:00,59.0,57.3,30.02,East,94,1.0,2.0,94,0.00,,,0.00,Wunderground v.1.15,2013-10-15 12:55:00,
2013-10-15 09:01:00,59.3,57.6,30.03,East,95,1.0,1.0,94,0.00,,,0.00,Wunderground v.1.15,2013-10-15 13:01:00,
2013-10-15 09:07:00,59.5,57.8,30.02,SSE,162,1.0,3.0,94,0.00,,,0.00,Wunderground v.1.15,2013-10-15 13:07:00,
2013-10-15 09:13:00,59.8,58.1,30.03,SE,138,2.0,2.0,94,0.00,,,0.00,Wunderground v.1.15,2013-10-15 13:13:00,
2013-10-15 09:19:00,59.9,58.2,30.03,SE,138,2.0,5.0,94,0.00,,,0.00,Wunderground v.1.15,2013-10-15 13:19:00,
2013-10-15 09:25:00,60.2,58.2,30.03,SE,140,2.0,3.0,93,0.00,,,0.00,Wunderground v.1.15,2013-10-15 13:25:00,
2013-10-15 09:31:00,60.4,58.4,30.02,SE,140,1.0,3.0,93,0.00,,,0.00,Wunderground v.1.15,2013-10-15 13:31:00,
2013-10-15 09:37:00,60.7,59.0,30.02,ESE,119,2.0,3.0,94,0.00,,,0.00,Wunderground v.1.15,2013-10-15 13:37:00,
2013-10-15 09:43:00,61.0,59.0,30.02,ESE,121,2.0,2.0,93,0.00,,,0.00,Wunderground v.1.15,2013-10-15 13:43:00,
2013-10-15 09:49:00,61.4,59.4,30.02,ESE,122,2.0,4.0,93,0.00,,,0.00,Wunderground v.1.15,2013-10-15 13:49:00,
2013-10-15 09:55:00,61.6,59.6,30.02,ESE,122,2.0,3.0,93,0.00,,,0.00,Wunderground v.1.15,2013-10-15 13:55:00,
2013-10-15 10:01:00,61.9,59.9,30.01,ESE,122,1.0,1.0,93,0.00,,,0.00,Wunderground v.1.15,2013-10-15 14:01:00,
2013-10-15 10:07:00,62.1,60.1,30.02,ESE,122,1.0,3.0,93,0.00,,,0.00,Wunderground v.1.15,2013-10-15 14:07:00,
2013-10-15 10:13:00,62.4,60.0,30.02,ESE,122,1.0,3.0,92,0.00,,,0.00,Wunderground v.1.15,2013-10-15 14:13:00,
2013-10-15 10:19:00,62.7,60.3,30.02,SSW,210,1.0,5.0,92,0.00,,,0.00,Wunderground v.1.15,2013-10-15 14:19:00,
2013-10-15 10:25:00,63.2,60.5,30.02,WSW,238,2.0,4.0,91,0.00,,,0.00,Wunderground v.1.15,2013-10-15 14:25:00,
2013-10-15 10:31:00,63.8,60.8,30.02,SSE,164,3.0,3.0,90,0.00,,,0.00,Wunderground v.1.15,2013-10-15 14:31:00,
2013-10-15 10:37:00,64.3,61.3,30.02,SW,232,2.0,5.0,90,0.00,,,0.00,Wunderground v.1.15,2013-10-15 14:37:00,
2013-10-15 10:43:00,64.8,61.8,30.02,South,175,1.0,1.0,90,0.00,,,0.00,Wunderground v.1.15,2013-10-15 14:43:00,
2013-10-15 10:49:00,65.3,62.0,30.01,SSW,193,2.0,7.0,89,0.00,,,0.00,Wunderground v.1.15,2013-10-15 14:49:00,
2013-10-15 10:55:00,65.8,62.5,30.01,SSE,163,3.0,10.0,89,0.00,,,0.00,Wunderground v.1.15,2013-10-15 14:55:00,
2013-10-15 11:01:00,66.1,62.1,30.01,SSW,194,3.0,5.0,87,0.00,,,0.00,Wunderground v.1.15,2013-10-15 15:01:00,
2013-10-15 11:07:00,66.3,62.0,30.00,SSW,200,5.0,7.0,86,0.00,,,0.00,Wunderground v.1.15,2013-10-15 15:07:00,
2013-10-15 11:13:00,66.4,62.1,30.01,SSW,201,5.0,5.0,86,0.00,,,0.00,Wunderground v.1.15,2013-10-15 15:13:00,
2013-10-15 11:19:00,66.5,62.5,30.00,South,190,3.0,6.0,87,0.00,,,0.00,Wunderground v.1.15,2013-10-15 15:19:00,
2013-10-15 11:25:00,66.5,62.2,30.00,WSW,252,3.0,8.0,86,0.00,,,0.00,Wunderground v.1.15,2013-10-15 15:25:00,
2013-10-15 11:31:00,66.5,62.2,30.00,WSW,238,4.0,4.0,86,0.00,,,0.00,Wunderground v.1.15,2013-10-15 15:31:00,
2013-10-15 11:37:00,66.5,62.5,30.00,SSE,166,4.0,4.0,87,0.00,,,0.00,Wunderground v.1.15,2013-10-15 15:37:00,
2013-10-15 11:43:00,66.6,62.6,30.00,SSE,165,3.0,3.0,87,0.00,,,0.00,Wunderground v.1.15,2013-10-15 15:43:00,
2013-10-15 11:49:00,66.7,62.7,30.00,SW,236,3.0,6.0,87,0.00,,,0.00,Wunderground v.1.15,2013-10-15 15:49:00,
2013-10-15 11:55:00,66.7,62.7,30.00,South,188,3.0,4.0,87,0.00,,,0.00,Wunderground v.1.15,2013-10-15 15:55:00,
2013-10-15 12:01:00,66.8,62.5,30.00,SW,234,4.0,6.0,86,0.00,,,0.00,Wunderground v.1.15,2013-10-15 16:01:00,
2013-10-15 12:07:00,66.9,62.6,30.00,SW,229,4.0,7.0,86,0.00,,,0.00,Wunderground v.1.15,2013-10-15 16:07:00,
2013-10-15 12:13:00,67.0,62.7,30.00,SSW,213,3.0,4.0,86,0.00,,,0.00,Wunderground v.1.15,2013-10-15 16:13:00,
2013-10-15 12:19:00,67.2,62.9,30.00,South,185,3.0,7.0,86,0.00,,,0.00,Wunderground v.1.15,2013-10-15 16:19:00,
2013-10-15 12:25:00,67.2,63.2,30.00,SSE,163,2.0,3.0,87,0.00,,,0.00,Wunderground v.1.15,2013-10-15 16:25:00,
2013-10-15 12:31:00,67.3,63.0,30.00,South,180,3.0,3.0,86,0.00,,,0.00,Wunderground v.1.15,2013-10-15 16:31:00,
2013-10-15 12:37:00,67.4,63.4,30.00,SSW,207,2.0,4.0,87,0.00,,,0.00,Wunderground v.1.15,2013-10-15 16:37:00,
2013-10-15 12:43:00,67.4,63.4,30.00,SSW,211,2.0,4.0,87,0.00,,,0.00,Wunderground v.1.15,2013-10-15 16:43:00,
2013-10-15 12:49:00,67.5,63.5,30.00,SW,235,2.0,4.0,87,0.00,,,0.00,Wunderground v.1.15,2013-10-15 16:49:00,
2013-10-15 12:55:00,67.5,63.5,30.00,SSE,153,3.0,7.0,87,0.00,,,0.00,Wunderground v.1.15,2013-10-15 16:55:00,
2013-10-15 13:01:00,67.6,63.6,30.00,WSW,250,2.0,5.0,87,0.00,,,0.00,Wunderground v.1.15,2013-10-15 17:01:00,
2013-10-15 13:07:00,67.7,64.0,29.99,South,173,3.0,7.0,88,0.00,,,0.00,Wunderground v.1.15,2013-10-15 17:07:00,
2013-10-15 13:13:00,68.0,64.3,29.99,South,171,3.0,3.0,88,0.00,,,0.00,Wunderground v.1.15,2013-10-15 17:13:00,
2013-10-15 13:19:00,68.2,64.2,29.99,SSE,167,4.0,4.0,87,0.00,,,0.00,Wunderground v.1.15,2013-10-15 17:19:00,
2013-10-15 13:25:00,68.3,63.9,29.99,SW,225,3.0,5.0,86,0.00,,,0.00,Wunderground v.1.15,2013-10-15 17:25:00,
2013-10-15 13:31:00,68.1,63.8,29.99,SW,236,3.0,5.0,86,0.00,,,0.00,Wunderground v.1.15,2013-10-15 17:31:00,
2013-10-15 13:37:00,68.1,63.8,29.99,SW,217,3.0,5.0,86,0.00,,,0.00,Wunderground v.1.15,2013-10-15 17:37:00,
2013-10-15 13:43:00,68.1,64.1,29.99,WSW,239,2.0,3.0,87,0.00,,,0.00,Wunderground v.1.15,2013-10-15 17:43:00,
2013-10-15 13:49:00,68.2,64.2,29.99,WSW,254,1.0,3.0,87,0.00,,,0.00,Wunderground v.1.15,2013-10-15 17:49:00,
2013-10-15 13:55:00,68.1,64.1,29.98,WSW,237,1.0,3.0,87,0.00,,,0.00,Wunderground v.1.15,2013-10-15 17:55:00,
2013-10-15 14:01:00,67.9,64.2,29.98,SW,217,2.0,2.0,88,0.00,,,0.00,Wunderground v.1.15,2013-10-15 18:01:00,
2013-10-15 14:07:00,67.7,64.0,29.98,SW,234,1.0,2.0,88,0.00,,,0.01,Wunderground v.1.15,2013-10-15 18:07:00,
2013-10-15 14:13:00,67.4,64.0,29.98,SSW,212,2.0,6.0,89,0.00,,,0.01,Wunderground v.1.15,2013-10-15 18:13:00,
2013-10-15 14:19:00,67.1,64.1,29.97,SSW,211,1.0,6.0,90,0.00,,,0.01,Wunderground v.1.15,2013-10-15 18:19:00,
2013-10-15 14:25:00,67.0,64.3,29.97,SSW,211,0.0,1.0,91,0.00,,,0.01,Wunderground v.1.15,2013-10-15 18:25:00,
2013-10-15 14:31:00,66.8,64.1,29.97,SSW,211,0.0,0.0,91,0.00,,,0.02,Wunderground v.1.15,2013-10-15 18:31:00,
2013-10-15 14:37:00,66.7,64.0,29.97,SSW,200,1.0,2.0,91,0.06,,,0.03,Wunderground v.1.15,2013-10-15 18:37:00,
2013-10-15 14:43:00,66.4,64.0,29.97,SSW,200,1.0,1.0,92,0.06,,,0.03,Wunderground v.1.15,2013-10-15 18:43:00,
2013-10-15 14:49:00,66.1,63.7,29.97,South,185,1.0,4.0,92,0.05,,,0.03,Wunderground v.1.15,2013-10-15 18:49:00,
2013-10-15 14:55:00,65.9,63.8,29.96,South,185,1.0,1.0,93,0.00,,,0.03,Wunderground v.1.15,2013-10-15 18:55:00,
2013-10-15 15:01:00,65.8,63.7,29.96,South,185,0.0,2.0,93,0.00,,,0.03,Wunderground v.1.15,2013-10-15 19:01:00,
2013-10-15 15:07:00,65.7,63.6,29.96,South,185,1.0,2.0,93,0.00,,,0.03,Wunderground v.1.15,2013-10-15 19:07:00,
2013-10-15 15:13:00,65.6,63.8,29.95,SSE,149,2.0,5.0,94,0.00,,,0.03,Wunderground v.1.15,2013-10-15 19:13:00,
2013-10-15 15:19:00,65.5,63.7,29.95,ESE,123,3.0,5.0,94,0.00,,,0.03,Wunderground v.1.15,2013-10-15 19:19:00,
2013-10-15 15:25:00,65.5,63.7,29.95,South,186,2.0,6.0,94,0.00,,,0.03,Wunderground v.1.15,2013-10-15 19:25:00,
2013-10-15 15:31:00,65.4,63.9,29.95,ESE,109,2.0,2.0,95,0.00,,,0.04,Wunderground v.1.15,2013-10-15 19:31:00,
2013-10-15 15:37:00,65.4,63.9,29.95,SW,227,3.0,3.0,95,0.00,,,0.04,Wunderground v.1.15,2013-10-15 19:37:00,
2013-10-15 15:43:00,65.3,63.8,29.94,SE,132,3.0,3.0,95,0.06,,,0.05,Wunderground v.1.15,2013-10-15 19:43:00,
2013-10-15 15:49:00,65.2,63.7,29.93,ESE,119,3.0,7.0,95,0.06,,,0.06,Wunderground v.1.15,2013-10-15 19:49:00,
2013-10-15 15:55:00,65.2,63.7,29.93,SE,144,3.0,8.0,95,0.06,,,0.06,Wunderground v.1.15,2013-10-15 19:55:00,
2013-10-15 16:01:00,65.2,63.7,29.94,South,184,3.0,3.0,95,0.05,,,0.07,Wunderground v.1.15,2013-10-15 20:01:00,
2013-10-15 16:07:00,65.2,63.7,29.93,ESE,121,3.0,4.0,95,0.05,,,0.07,Wunderground v.1.15,2013-10-15 20:07:00,
2013-10-15 16:13:00,65.4,64.2,29.92,SSE,163,4.0,4.0,96,0.05,,,0.07,Wunderground v.1.15,2013-10-15 20:13:00,
2013-10-15 16:19:00,65.6,64.4,29.92,SSE,164,3.0,4.0,96,0.00,,,0.07,Wunderground v.1.15,2013-10-15 20:19:00,
2013-10-15 16:25:00,65.7,64.5,29.91,SE,134,3.0,7.0,96,0.00,,,0.07,Wunderground v.1.15,2013-10-15 20:25:00,
2013-10-15 16:31:00,65.8,64.6,29.91,SSE,151,4.0,4.0,96,0.00,,,0.07,Wunderground v.1.15,2013-10-15 20:31:00,
2013-10-15 16:37:00,65.9,64.7,29.91,SSE,163,4.0,7.0,96,0.00,,,0.07,Wunderground v.1.15,2013-10-15 20:37:00,
2013-10-15 16:43:00,66.0,64.5,29.92,SE,144,4.0,5.0,95,0.00,,,0.07,Wunderground v.1.15,2013-10-15 20:43:00,
2013-10-15 16:49:00,66.0,64.5,29.92,West,260,4.0,6.0,95,0.00,,,0.07,Wunderground v.1.15,2013-10-15 20:49:00,
2013-10-15 16:55:00,66.1,64.6,29.92,South,186,3.0,5.0,95,0.00,,,0.07,Wunderground v.1.15,2013-10-15 20:55:00,
2013-10-15 17:01:00,66.1,64.6,29.92,South,181,2.0,4.0,95,0.00,,,0.07,Wunderground v.1.15,2013-10-15 21:01:00,
2013-10-15 17:07:00,66.2,64.7,29.93,South,174,2.0,4.0,95,0.00,,,0.07,Wunderground v.1.15,2013-10-15 21:07:00,
2013-10-15 17:13:00,66.2,64.7,29.92,SSW,195,2.0,3.0,95,0.00,,,0.07,Wunderground v.1.15,2013-10-15 21:13:00,
2013-10-15 17:19:00,66.2,64.7,29.92,SSE,155,2.0,3.0,95,0.00,,,0.07,Wunderground v.1.15,2013-10-15 21:19:00,
2013-10-15 17:25:00,66.2,64.7,29.92,SSW,194,2.0,4.0,95,0.00,,,0.07,Wunderground v.1.15,2013-10-15 21:25:00,
2013-10-15 17:31:00,66.1,64.6,29.93,SSW,196,1.0,1.0,95,0.00,,,0.07,Wunderground v.1.15,2013-10-15 21:31:00,
2013-10-15 17:37:00,66.1,64.6,29.93,SW,214,1.0,4.0,95,0.00,,,0.07,Wunderground v.1.15,2013-10-15 21:37:00,
2013-10-15 17:43:00,66.1,64.6,29.93,SSW,212,1.0,1.0,95,0.00,,,0.07,Wunderground v.1.15,2013-10-15 21:43:00,
2013-10-15 17:49:00,66.1,64.6,29.93,SSW,212,0.0,1.0,95,0.00,,,0.07,Wunderground v.1.15,2013-10-15 21:49:00,
2013-10-15 17:55:00,66.0,64.5,29.93,SSW,212,0.0,0.0,95,0.00,,,0.07,Wunderground v.1.15,2013-10-15 21:55:00,
2013-10-15 18:01:00,66.0,64.5,29.91,SE,132,1.0,3.0,95,0.00,,,0.07,Wunderground v.1.15,2013-10-15 22:01:00,
2013-10-15 18:07:00,65.9,64.4,29.93,SE,139,2.0,3.0,95,0.00,,,0.07,Wunderground v.1.15,2013-10-15 22:07:00,
2013-10-15 18:13:00,65.9,64.4,29.93,South,172,1.0,3.0,95,0.00,,,0.07,Wunderground v.1.15,2013-10-15 22:13:00,
2013-10-15 18:19:00,65.9,64.4,29.93,South,172,1.0,3.0,95,0.00,,,0.07,Wunderground v.1.15,2013-10-15 22:19:00,
2013-10-15 18:25:00,65.8,64.3,29.93,South,173,1.0,1.0,95,0.00,,,0.07,Wunderground v.1.15,2013-10-15 22:25:00,
2013-10-15 18:31:00,65.7,64.2,29.92,South,173,1.0,1.0,95,0.00,,,0.07,Wunderground v.1.15,2013-10-15 22:31:00,
2013-10-15 18:37:00,65.7,64.2,29.92,South,176,1.0,1.0,95,0.00,,,0.07,Wunderground v.1.15,2013-10-15 22:37:00,
2013-10-15 18:43:00,65.7,64.2,29.92,South,181,1.0,2.0,95,0.00,,,0.07,Wunderground v.1.15,2013-10-15 22:43:00,
2013-10-15 18:49:00,65.6,64.1,29.91,SSE,153,2.0,2.0,95,0.00,,,0.07,Wunderground v.1.15,2013-10-15 22:49:00,
2013-10-15 18:55:00,65.5,64.0,29.92,SSE,152,2.0,4.0,95,0.00,,,0.07,Wunderground v.1.15,2013-10-15 22:55:00,
2013-10-15 19:01:00,65.4,63.9,29.92,SSE,152,1.0,2.0,95,0.00,,,0.07,Wunderground v.1.15,2013-10-15 23:01:00,
2013-10-15 19:07:00,65.4,63.9,29.92,SSE,152,1.0,4.0,95,0.00,,,0.07,Wunderground v.1.15,2013-10-15 23:07:00,
2013-10-15 19:13:00,65.4,63.9,29.92,SSE,158,1.0,1.0,95,0.00,,,0.07,Wunderground v.1.15,2013-10-15 23:13:00,
2013-10-15 19:19:00,65.3,63.8,29.91,SSE,158,0.0,1.0,95,0.00,,,0.07,Wunderground v.1.15,2013-10-15 23:19:00,
2013-10-15 19:25:00,65.3,63.8,29.91,SSE,158,1.0,1.0,95,0.00,,,0.07,Wunderground v.1.15,2013-10-15 23:25:00,
2013-10-15 19:31:00,65.3,63.8,29.91,SSE,158,1.0,1.0,95,0.00,,,0.07,Wunderground v.1.15,2013-10-15 23:31:00,
2013-10-15 19:37:00,65.2,63.7,29.92,SSW,201,1.0,1.0,95,0.00,,,0.07,Wunderground v.1.15,2013-10-15 23:37:00,
2013-10-15 19:43:00,65.2,63.7,29.92,SSW,201,0.0,3.0,95,0.00,,,0.07,Wunderground v.1.15,2013-10-15 23:43:00,
2013-10-15 19:49:00,65.2,63.7,29.92,SSW,192,0.0,3.0,95,0.00,,,0.07,Wunderground v.1.15,2013-10-15 23:49:00,
2013-10-15 19:55:00,65.2,63.7,29.92,SSW,192,1.0,1.0,95,0.00,,,0.07,Wunderground v.1.15,2013-10-15 23:55:00,
2013-10-15 20:01:00,65.2,64.0,29.91,SE,140,1.0,2.0,96,0.00,,,0.07,Wunderground v.1.15,2013-10-16 00:01:00,
2013-10-15 20:07:00,65.2,64.0,29.92,South,186,2.0,3.0,96,0.00,,,0.07,Wunderground v.1.15,2013-10-16 00:07:00,
2013-10-15 20:13:00,65.2,64.0,29.92,South,186,1.0,1.0,96,0.00,,,0.07,Wunderground v.1.15,2013-10-16 00:13:00,
2013-10-15 20:19:00,65.2,64.0,29.92,South,191,1.0,4.0,96,0.00,,,0.07,Wunderground v.1.15,2013-10-16 00:19:00,
2013-10-15 20:25:00,65.2,63.7,29.92,SSW,193,1.0,1.0,95,0.00,,,0.07,Wunderground v.1.15,2013-10-16 00:25:00,
2013-10-15 20:31:00,65.2,63.7,29.92,SW,218,2.0,2.0,95,0.00,,,0.07,Wunderground v.1.15,2013-10-16 00:31:00,
2013-10-15 20:37:00,65.2,63.7,29.92,SSE,168,3.0,5.0,95,0.00,,,0.07,Wunderground v.1.15,2013-10-16 00:37:00,
2013-10-15 20:43:00,65.1,63.6,29.92,South,184,3.0,3.0,95,0.00,,,0.07,Wunderground v.1.15,2013-10-16 00:43:00,
2013-10-15 20:49:00,65.1,63.6,29.92,SSW,192,2.0,3.0,95,0.00,,,0.07,Wunderground v.1.15,2013-10-16 00:49:00,
2013-10-15 20:55:00,65.1,63.6,29.92,South,183,1.0,5.0,95,0.00,,,0.07,Wunderground v.1.15,2013-10-16 00:55:00,
2013-10-15 21:01:00,65.1,63.6,29.93,West,261,2.0,3.0,95,0.00,,,0.07,Wunderground v.1.15,2013-10-16 01:01:00,
2013-10-15 21:07:00,65.1,63.6,29.93,WSW,255,3.0,4.0,95,0.00,,,0.07,Wunderground v.1.15,2013-10-16 01:07:00,
2013-10-15 21:13:00,65.2,63.4,29.93,WSW,243,3.0,3.0,94,0.00,,,0.07,Wunderground v.1.15,2013-10-16 01:13:00,
2013-10-15 21:19:00,65.1,63.3,29.93,WSW,240,1.0,3.0,94,0.00,,,0.07,Wunderground v.1.15,2013-10-16 01:19:00,
2013-10-15 21:25:00,65.1,63.3,29.93,WSW,240,1.0,4.0,94,0.00,,,0.07,Wunderground v.1.15,2013-10-16 01:25:00,
2013-10-15 21:31:00,65.1,63.3,29.93,WSW,238,2.0,2.0,94,0.00,,,0.07,Wunderground v.1.15,2013-10-16 01:31:00,
2013-10-15 21:37:00,65.1,63.3,29.93,WSW,238,1.0,2.0,94,0.00,,,0.07,Wunderground v.1.15,2013-10-16 01:37:00,
2013-10-15 21:43:00,65.0,63.5,29.93,WSW,238,0.0,0.0,95,0.00,,,0.07,Wunderground v.1.15,2013-10-16 01:43:00,
2013-10-15 21:49:00,64.9,63.4,29.92,WSW,238,0.0,0.0,95,0.00,,,0.07,Wunderground v.1.15,2013-10-16 01:49:00,
2013-10-15 21:55:00,64.9,63.4,29.92,WSW,238,0.0,0.0,95,0.00,,,0.07,Wunderground v.1.15,2013-10-16 01:55:00,
2013-10-15 22:01:00,64.8,63.3,29.92,WSW,238,0.0,1.0,95,0.00,,,0.07,Wunderground v.1.15,2013-10-16 02:01:00,
2013-10-15 22:07:00,64.8,63.3,29.92,WSW,237,0.0,2.0,95,0.00,,,0.07,Wunderground v.1.15,2013-10-16 02:07:00,
2013-10-15 22:13:00,64.7,63.2,29.92,WSW,237,0.0,1.0,95,0.00,,,0.07,Wunderground v.1.15,2013-10-16 02:13:00,
2013-10-15 22:19:00,64.6,63.1,29.93,WSW,237,0.0,1.0,95,0.00,,,0.07,Wunderground v.1.15,2013-10-16 02:19:00,
2013-10-15 22:25:00,64.6,63.1,29.93,WSW,237,0.0,0.0,95,0.00,,,0.07,Wunderground v.1.15,2013-10-16 02:25:00,
2013-10-15 22:31:00,64.6,63.1,29.93,WSW,237,1.0,2.0,95,0.00,,,0.07,Wunderground v.1.15,2013-10-16 02:31:00,
2013-10-15 22:37:00,64.5,63.0,29.93,WSW,237,0.0,2.0,95,0.00,,,0.07,Wunderground v.1.15,2013-10-16 02:37:00,
2013-10-15 22:43:00,64.5,63.0,29.93,WSW,237,0.0,2.0,95,0.00,,,0.07,Wunderground v.1.15,2013-10-16 02:43:00,
2013-10-15 22:49:00,64.5,63.0,29.93,WSW,237,1.0,2.0,95,0.00,,,0.07,Wunderground v.1.15,2013-10-16 02:49:00,
2013-10-15 22:55:00,64.5,63.0,29.94,WSW,237,1.0,2.0,95,0.00,,,0.07,Wunderground v.1.15,2013-10-16 02:55:00,
2013-10-15 23:01:00,64.5,63.0,29.94,WSW,237,1.0,1.0,95,0.00,,,0.07,Wunderground v.1.15,2013-10-16 03:01:00,
2013-10-15 23:07:00,64.5,63.0,29.94,WSW,237,1.0,5.0,95,0.00,,,0.07,Wunderground v.1.15,2013-10-16 03:07:00,
2013-10-15 23:13:00,64.6,63.1,29.93,WSW,239,1.0,2.0,95,0.00,,,0.07,Wunderground v.1.15,2013-10-16 03:13:00,
2013-10-15 23:19:00,64.6,63.1,29.93,WSW,239,1.0,2.0,95,0.00,,,0.07,Wunderground v.1.15,2013-10-16 03:19:00,
2013-10-15 23:25:00,64.6,63.1,29.93,WSW,239,0.0,1.0,95,0.00,,,0.07,Wunderground v.1.15,2013-10-16 03:25:00,
2013-10-15 23:31:00,64.6,63.1,29.93,WSW,239,1.0,1.0,95,0.00,,,0.07,Wunderground v.1.15,2013-10-16 03:31:00,
2013-10-15 23:37:00,64.5,63.0,29.92,WSW,239,1.0,1.0,95,0.00,,,0.07,Wunderground v.1.15,2013-10-16 03:37:00,
2013-10-15 23:43:00,64.5,63.0,29.93,WSW,239,0.0,0.0,95,0.00,,,0.07,Wunderground v.1.15,2013-10-16 03:43:00,
2013-10-15 23:49:00,64.5,63.0,29.93,WSW,239,0.0,0.0,95,0.00,,,0.07,Wunderground v.1.15,2013-10-16 03:49:00,
2013-10-15 23:55:00,64.5,63.3,29.93,WSW,239,1.0,3.0,96,0.00,,,0.07,Wunderground v.1.15,2013-10-16 03:55:00,